AVA4839 SKBO-SKPE

Flight info

Callsign AVA4839
Flight time 0h 27m
Altitude 20000
Route ISNOX2S ISNOX ISNOX1C
Aircraft A320/M-SDE3FGHIRWY/LB1

Departure

Time 2026-05-07 23:41
Airport El Dorado International Airport (SKBO)

Arrival

Time 2026-05-08 00:09
Airport Matecaña International Airport (SKPE)
Time Latitude Longitude Altitude Speed Heading
2026-05-07 23:05 4.69880 -74.14463 8370 ft 0 kts 226°
2026-05-07 23:26 4.69885 -74.14458 8370 ft 4 kts 227°
2026-05-07 23:26 4.69903 -74.14438 8370 ft 4 kts 231°
2026-05-07 23:27 4.69908 -74.14398 8370 ft 0 kts 308°
2026-05-07 23:31 4.69921 -74.14413 8370 ft 3 kts 308°
2026-05-07 23:31 4.69935 -74.14432 8370 ft 8 kts 308°
2026-05-07 23:32 4.69998 -74.14513 8370 ft 18 kts 308°
2026-05-07 23:32 4.70083 -74.14597 8370 ft 17 kts 318°
2026-05-07 23:32 4.70165 -74.14679 8370 ft 16 kts 294°
2026-05-07 23:32 4.70110 -74.14750 8371 ft 14 kts 219°
2026-05-07 23:33 4.70035 -74.14811 8370 ft 14 kts 218°
2026-05-07 23:33 4.69956 -74.14872 8371 ft 15 kts 217°
2026-05-07 23:33 4.69872 -74.14931 8370 ft 15 kts 218°
2026-05-07 23:33 4.69887 -74.15016 8371 ft 14 kts 304°
2026-05-07 23:34 4.69943 -74.15092 8370 ft 14 kts 307°
2026-05-07 23:34 4.70000 -74.15167 8371 ft 13 kts 307°
2026-05-07 23:34 4.70054 -74.15240 8371 ft 13 kts 307°
2026-05-07 23:34 4.70107 -74.15311 8370 ft 12 kts 307°
2026-05-07 23:35 4.70156 -74.15376 8370 ft 12 kts 308°
2026-05-07 23:35 4.70212 -74.15447 8370 ft 13 kts 309°
2026-05-07 23:35 4.70269 -74.15518 8370 ft 13 kts 309°
2026-05-07 23:35 4.70324 -74.15587 8370 ft 12 kts 309°
2026-05-07 23:36 4.70374 -74.15652 8370 ft 12 kts 304°
2026-05-07 23:36 4.70416 -74.15714 8370 ft 10 kts 303°
2026-05-07 23:36 4.70448 -74.15763 8370 ft 7 kts 305°
2026-05-07 23:36 4.70491 -74.15822 8370 ft 15 kts 307°
2026-05-07 23:37 4.70556 -74.15908 8370 ft 16 kts 307°
2026-05-07 23:37 4.70601 -74.15965 8371 ft 16 kts 307°
2026-05-07 23:37 4.70691 -74.16084 8371 ft 16 kts 307°
2026-05-07 23:37 4.70736 -74.16145 8371 ft 16 kts 307°
2026-05-07 23:38 4.70804 -74.16239 8371 ft 17 kts 306°
2026-05-07 23:38 4.70881 -74.16330 8371 ft 17 kts 309°
2026-05-07 23:38 4.70955 -74.16425 8371 ft 18 kts 303°
2026-05-07 23:38 4.71029 -74.16525 8370 ft 18 kts 308°
2026-05-07 23:39 4.71107 -74.16626 8371 ft 19 kts 307°
2026-05-07 23:39 4.71185 -74.16731 8370 ft 19 kts 306°
2026-05-07 23:39 4.71192 -74.16800 8371 ft 9 kts 245°
2026-05-07 23:39 4.71153 -74.16834 8371 ft 6 kts 213°
2026-05-07 23:40 4.71119 -74.16857 8371 ft 8 kts 213°
2026-05-07 23:40 4.71055 -74.16891 8371 ft 11 kts 184°
2026-05-07 23:40 4.71008 -74.16854 8372 ft 0 kts 127°
2026-05-07 23:41 4.70856 -74.16657 8371 ft 71 kts 127°
2026-05-07 23:41 4.70432 -74.16091 8372 ft 130 kts 127°
2026-05-07 23:41 4.69776 -74.15225 8376 ft 179 kts 127°
2026-05-07 23:41 4.69017 -74.14228 9005 ft 177 kts 126°
2026-05-07 23:42 4.68168 -74.13346 9630 ft 182 kts 151°
2026-05-07 23:42 4.66910 -74.13186 10215 ft 186 kts 197°
2026-05-07 23:42 4.65853 -74.13973 10402 ft 205 kts 232°
2026-05-07 23:42 4.65012 -74.15221 10530 ft 227 kts 237°
2026-05-07 23:43 4.64141 -74.16628 10680 ft 246 kts 237°
2026-05-07 23:43 4.63220 -74.18110 11087 ft 253 kts 236°
2026-05-07 23:43 4.62268 -74.19602 11555 ft 257 kts 236°
2026-05-07 23:43 4.61468 -74.21212 12076 ft 263 kts 254°
2026-05-07 23:44 4.61077 -74.23083 12290 ft 286 kts 258°
2026-05-07 23:44 4.60694 -74.25118 12463 ft 309 kts 259°
2026-05-07 23:44 4.60223 -74.27300 12613 ft 331 kts 250°
2026-05-07 23:44 4.59186 -74.29429 12730 ft 352 kts 240°
2026-05-07 23:45 4.58002 -74.31666 12835 ft 373 kts 242°
2026-05-07 23:45 4.56793 -74.34027 13136 ft 386 kts 242°
2026-05-07 23:45 4.55578 -74.36442 13657 ft 391 kts 243°
2026-05-07 23:45 4.54350 -74.38891 14062 ft 396 kts 242°
2026-05-07 23:46 4.53106 -74.41366 14538 ft 399 kts 242°
2026-05-07 23:46 4.51846 -74.43852 15024 ft 402 kts 242°
2026-05-07 23:46 4.50568 -74.46353 15534 ft 405 kts 242°
2026-05-07 23:46 4.49277 -74.48869 16026 ft 407 kts 242°
2026-05-07 23:47 4.47974 -74.51402 16531 ft 410 kts 242°
2026-05-07 23:47 4.46662 -74.53958 17033 ft 413 kts 242°
2026-05-07 23:47 4.45344 -74.56530 17540 ft 416 kts 242°
2026-05-07 23:47 4.44036 -74.59086 18032 ft 419 kts 242°
2026-05-07 23:48 4.42685 -74.61728 18501 ft 422 kts 242°
2026-05-07 23:48 4.41340 -74.64359 18925 ft 425 kts 242°
2026-05-07 23:48 4.40006 -74.66967 19350 ft 427 kts 242°
2026-05-07 23:48 4.38643 -74.69624 19745 ft 430 kts 242°
2026-05-07 23:49 4.37271 -74.72289 19880 ft 431 kts 242°
2026-05-07 23:49 4.35875 -74.74992 19911 ft 443 kts 242°
2026-05-07 23:49 4.34435 -74.77775 19898 ft 455 kts 242°
2026-05-07 23:49 4.33107 -74.80671 19891 ft 461 kts 250°
2026-05-07 23:50 4.32281 -74.83787 19891 ft 463 kts 260°
2026-05-07 23:50 4.32010 -74.86999 19890 ft 463 kts 270°
2026-05-07 23:50 4.32299 -74.90203 19891 ft 463 kts 281°
2026-05-07 23:50 4.33006 -74.93358 19899 ft 463 kts 283°
2026-05-07 23:51 4.33733 -74.96500 19908 ft 463 kts 283°
2026-05-07 23:51 4.34455 -74.99646 19962 ft 463 kts 283°
2026-05-07 23:51 4.35174 -75.02793 19969 ft 463 kts 283°
2026-05-07 23:51 4.35892 -75.05941 19975 ft 463 kts 283°
2026-05-07 23:52 4.36611 -75.09089 19974 ft 463 kts 283°
2026-05-07 23:52 4.37329 -75.12237 19972 ft 463 kts 283°
2026-05-07 23:52 4.38049 -75.15384 19973 ft 463 kts 283°
2026-05-07 23:52 4.38770 -75.18524 19974 ft 463 kts 283°
2026-05-07 23:53 4.39496 -75.21678 19973 ft 463 kts 283°
2026-05-07 23:53 4.40219 -75.24825 19972 ft 463 kts 283°
2026-05-07 23:53 4.40932 -75.27936 19765 ft 455 kts 283°
2026-05-07 23:53 4.41638 -75.31011 19543 ft 452 kts 283°
2026-05-07 23:54 4.42338 -75.34071 19331 ft 450 kts 283°
2026-05-07 23:54 4.43028 -75.37086 19094 ft 446 kts 283°
2026-05-07 23:54 4.43708 -75.40055 18956 ft 425 kts 283°
2026-05-07 23:54 4.44347 -75.42838 18854 ft 396 kts 283°
2026-05-07 23:55 4.44944 -75.45441 18755 ft 372 kts 283°
2026-05-07 23:55 4.45511 -75.47913 18393 ft 357 kts 283°
2026-05-07 23:55 4.46060 -75.50310 18019 ft 349 kts 283°
2026-05-07 23:55 4.46603 -75.52679 17751 ft 349 kts 283°
2026-05-07 23:56 4.47143 -75.55037 17493 ft 346 kts 284°
2026-05-07 23:56 4.47846 -75.57326 17233 ft 341 kts 290°
2026-05-07 23:56 4.48864 -75.59439 16976 ft 334 kts 304°
2026-05-07 23:56 4.50324 -75.61209 16724 ft 326 kts 319°
2026-05-07 23:57 4.51877 -75.62424 16508 ft 320 kts 328°
2026-05-07 23:57 4.53718 -75.63650 16289 ft 315 kts 328°
2026-05-07 23:57 4.55529 -75.64860 16042 ft 311 kts 328°
2026-05-07 23:57 4.57399 -75.65937 15728 ft 309 kts 336°
2026-05-07 23:58 4.59327 -75.66872 15415 ft 308 kts 336°
2026-05-07 23:58 4.61205 -75.67787 15278 ft 292 kts 336°
2026-05-07 23:58 4.63023 -75.68672 15061 ft 289 kts 336°
2026-05-07 23:58 4.64821 -75.69545 14800 ft 287 kts 336°
2026-05-07 23:59 4.66584 -75.70514 14445 ft 290 kts 324°
2026-05-07 23:59 4.67967 -75.71968 14278 ft 289 kts 304°
2026-05-07 23:59 4.68786 -75.73775 13970 ft 290 kts 285°
2026-05-07 23:59 4.69281 -75.75726 13662 ft 288 kts 285°
2026-05-08 00:00 4.69766 -75.77656 13365 ft 284 kts 285°
2026-05-08 00:00 4.70151 -75.79579 13085 ft 278 kts 273°
2026-05-08 00:00 4.70023 -75.81458 12768 ft 267 kts 256°
2026-05-08 00:00 4.69480 -75.83215 12296 ft 261 kts 251°
2026-05-08 00:01 4.68918 -75.84926 11895 ft 255 kts 252°
2026-05-08 00:01 4.68376 -75.86597 11531 ft 250 kts 251°
2026-05-08 00:01 4.67843 -75.88238 11159 ft 246 kts 252°
2026-05-08 00:01 4.67317 -75.89858 10779 ft 243 kts 251°
2026-05-08 00:02 4.66801 -75.91456 10412 ft 238 kts 253°
2026-05-08 00:02 4.66648 -75.93061 10058 ft 229 kts 281°
2026-05-08 00:02 4.67266 -75.94479 9665 ft 220 kts 310°
2026-05-08 00:02 4.68422 -75.95397 9270 ft 207 kts 337°
2026-05-08 00:03 4.69725 -75.95840 8948 ft 190 kts 343°
2026-05-08 00:03 4.70933 -75.96229 8646 ft 177 kts 343°
2026-05-08 00:03 4.72105 -75.96405 8339 ft 166 kts
2026-05-08 00:03 4.73186 -75.96119 8075 ft 159 kts 27°
2026-05-08 00:04 4.74062 -75.95456 7815 ft 158 kts 48°
2026-05-08 00:04 4.74623 -75.94513 7570 ft 159 kts 70°
2026-05-08 00:04 4.74975 -75.93398 7354 ft 184 kts 72°
2026-05-08 00:04 4.75373 -75.92110 7055 ft 189 kts 72°
2026-05-08 00:05 4.75752 -75.90900 6860 ft 174 kts 71°
2026-05-08 00:05 4.76110 -75.89793 6740 ft 163 kts 71°
2026-05-08 00:05 4.76458 -75.88726 6610 ft 160 kts 71°
2026-05-08 00:05 4.76810 -75.87667 6514 ft 160 kts 71°
2026-05-08 00:06 4.77163 -75.86611 6410 ft 160 kts 70°
2026-05-08 00:06 4.77524 -75.85556 6263 ft 160 kts 71°
2026-05-08 00:06 4.77879 -75.84499 6197 ft 160 kts 71°
2026-05-08 00:06 4.78225 -75.83443 6040 ft 160 kts 72°
2026-05-08 00:07 4.78556 -75.82399 5871 ft 159 kts 72°
2026-05-08 00:07 4.78902 -75.81352 5688 ft 158 kts 71°
2026-05-08 00:07 4.79249 -75.80309 5478 ft 157 kts 71°
2026-05-08 00:07 4.79578 -75.79268 5225 ft 156 kts 73°
2026-05-08 00:08 4.79903 -75.78228 5013 ft 157 kts 72°
2026-05-08 00:08 4.80236 -75.77182 4787 ft 157 kts 71°
2026-05-08 00:08 4.80569 -75.76136 4677 ft 158 kts 71°
2026-05-08 00:08 4.80907 -75.75076 4430 ft 159 kts 71°
2026-05-08 00:09 4.81220 -75.74109 4415 ft 115 kts 71°
2026-05-08 00:09 4.81398 -75.73557 4429 ft 70 kts 72°
2026-05-08 00:09 4.81480 -75.73301 4428 ft 14 kts 71°
2026-05-08 00:09 4.81517 -75.73222 4428 ft 12 kts 63°
2026-05-08 00:10 4.81530 -75.73167 4428 ft 2 kts 154°
2026-05-08 00:10 4.81519 -75.73182 4429 ft 7 kts 230°
2026-05-08 00:10 4.81495 -75.73257 4428 ft 13 kts 254°
2026-05-08 00:10 4.81466 -75.73346 4429 ft 14 kts 251°
2026-05-08 00:11 4.81441 -75.73443 4429 ft 13 kts 283°
2026-05-08 00:11 4.81482 -75.73476 4429 ft 3 kts 333°
2026-05-08 00:11 4.81493 -75.73484 4430 ft 2 kts 326°
2026-05-08 00:11 4.81509 -75.73510 4428 ft 4 kts 284°
2026-05-08 00:12 4.81503 -75.73547 4428 ft 10 kts 255°
2026-05-08 00:12 4.81481 -75.73619 4428 ft 12 kts 252°
2026-05-08 00:12 4.81467 -75.73664 4427 ft 5 kts 252°
2026-05-08 00:12 4.81459 -75.73686 4427 ft 2 kts 252°
2026-05-08 00:13 4.81462 -75.73696 4427 ft 1 kts 292°
2026-05-08 00:13 4.81465 -75.73699 4427 ft 1 kts 314°
2026-05-08 00:13 4.81479 -75.73706 4427 ft 2 kts 335°
2026-05-08 00:13 4.81491 -75.73710 4426 ft 2 kts 343°
2026-05-08 00:14 4.81501 -75.73713 4426 ft 1 kts 343°
2026-05-08 00:14 4.81502 -75.73713 4426 ft 0 kts 343°